Hourly Data Report for October 03, 2016

All times are specified in Local Standard Time (LST). Add 1 hour to adjust for Daylight Saving Time where and when it is observed.

KUGLUKTUK A
NUNAVUT

67°49'00.000" N
115°08'38.000" W
22.60 m
2300903
71938
YCO

Download Data

Hourly Data (October 2016)
Hourly Data Report for October 3, 2016
Temp Definition
°C
Dew Point Temp Definition
°C
Rel Hum Definition
%
Wind Dir Definition
10's deg

Wind Spd Definition
km/h
Visibility Definition
km
Stn Press Definition
kPa
Hmdx Definition


Wind Chill Definition


Weather Definition


TIME
00:00 Legend Double Dagger -6.0 -6.8 94 23 16 24.1 101.21   -12 LegendNANA
01:00 Legend Double Dagger -5.4 -6.2 94 23 15 24.1 101.15   -11 LegendNANA
02:00 Legend Double Dagger -4.6 -5.7 92 25 10 24.1 101.12   -9 Cloudy
03:00 Legend Double Dagger -4.9 -6.0 92 26 12 24.1 101.10   -10 LegendNANA
04:00 Legend Double Dagger -4.3 -5.3 93 25 12 24.1 101.08   -9 LegendNANA
05:00 Legend Double Dagger -3.9 -4.7 94 26 11 19.3 101.05   -8 Snow Grains
06:00 Legend Double Dagger -3.2 -4.0 94 26 13 24.1 101.02   -8 LegendNANA
07:00 Legend Double Dagger -3.2 -4.5 91 26 17 24.1 101.02   -9 LegendNANA
08:00 Legend Double Dagger -2.7 -4.0 91 29 13 24.1 101.03   -7 Cloudy
09:00 Legend Double Dagger -1.5 -4.2 82 35 20 24.1 101.04   -7 LegendNANA
10:00 Legend Double Dagger -1.1 -4.0 81 34 17 24.1 101.05   -6 LegendNANA
11:00 Legend Double Dagger -0.1 -3.7 77 29 12 24.1 101.06   -4 Cloudy
12:00 Legend Double Dagger -0.1 -3.1 80 27 15 24.1 101.07   -5 LegendNANA
13:00 Legend Double Dagger 0.5 -2.1 83 28 20 16.1 101.07     LegendNANA
14:00 Legend Double Dagger 0.3 -1.2 90 28 21 16.1 101.10     Snow
15:00 Legend Double Dagger 0.6 -1.6 85 33 25 24.1 101.16     Snow
16:00 Legend Double Dagger 0.4 -1.5 87 33 23 24.1 101.21     LegendNANA
17:00 Legend Double Dagger 0.3 -1.8 86 35 26 24.1 101.26     Cloudy
18:00 Legend Double Dagger -0.3 -2.1 88 34 30 19.3 101.34   -7 LegendNANA
19:00 Legend Double Dagger -1.0 -3.5 83 34 32 24.1 101.39   -8 LegendNANA
20:00 Legend Double Dagger -1.4 -5.5 74 32 28 24.1 101.46   -8 Mostly Cloudy
21:00 Legend Double Dagger -1.6 -5.6 74 33 19 24.1 101.52   -7 LegendNANA
22:00 Legend Double Dagger -1.8 -5.7 75 30 15 24.1 101.56   -7 Snow
23:00 Legend Double Dagger -2.0 -5.9 75 30 17 24.1 101.61   -7 Cloudy

Notes on Data Quality.

Legend

  • E = Estimated
  • M = Missing
  • NA = Not Available
  • ‡ = Partner data that is not subject to review by the National Climate Archives
Date modified: